| time (UTC) | temp F | wind direction | speed knots | gust knots | rain 1hr in | rain 24hr in | rain mn in | humidity % | barometer mb |
| 20260503011227 | 59 | 8 | 0.0 | 0.0 | 0.00 | 0.00 | 0.01 | ||
| 20260503002731 | 56 | 8 | 0.0 | 0.0 | 0.00 | 0.00 | 0.01 | ||
| 20260502235733 | 55 | 58 | 1.7 | 2.6 | 0.00 | 0.00 | 0.01 | ||
| 20260502234235 | 57 | 39 | 0.9 | 0.0 | 0.00 | 0.00 | 0.01 | ||
| 20260502232736 | 55 | 104 | 0.0 | 0.0 | 0.00 | 0.00 | 0.01 | ||
| 20260502231237 | 47 | 162 | 0.0 | 0.0 | 0.00 | 0.00 | 0.01 | ||
| 20260502225739 | 47 | 169 | 1.7 | 2.6 | 0.01 | 0.00 | 0.01 | ||
| 20260502224240 | 47 | 127 | 0.9 | 0.9 | 0.01 | 0.00 | 0.01 | ||
| 20260502222742 | 48 | 173 | 0.0 | 0.0 | 0.01 | 0.00 | 0.01 | ||
| 20260502221243 | 48 | 204 | 0.9 | 1.7 | 0.01 | 0.00 | 0.01 | ||
| 20260502215745 | 46 | 107 | 3.5 | 4.3 | 0.00 | 0.00 | 0.01 | ||
| 20260502214246 | 46 | 96 | 1.7 | 0.0 | 0.00 | 0.00 | 0.01 | ||
| 20260502211248 | 43 | 15 | 5.2 | 7.0 | 0.00 | 0.00 | 0.00 | ||
| 20260502205749 | 44 | 39 | 5.2 | 4.3 | 0.00 | 0.00 | 0.00 | ||
| 20260502204250 | 49 | 34 | 6.1 | 5.2 | 0.00 | 0.00 | 0.00 | ||
| 20260502202751 | 56 | 20 | 4.3 | 4.3 | 0.00 | 0.00 | 0.00 | ||
| 20260502201253 | 59 | 75 | 5.2 | 6.1 | 0.00 | 0.00 | 0.00 | ||
| 20260502195753 | 62 | 39 | 0.0 | 2.6 | 0.00 | 0.00 | 0.00 | ||
| 20260502194254 | 61 | 31 | 0.0 | 0.0 | 0.00 | 0.00 | 0.00 | ||
| 20260502192755 | 61 | 1 | 0.9 | 0.0 | 0.00 | 0.00 | 0.00 | ||
| 20260502191256 | 64 | 134 | 0.0 | 0.0 | 0.00 | 0.00 | 0.00 | ||
| 20260502185757 | 64 | 134 | 0.0 | 0.0 | 0.00 | 0.00 | 0.00 | ||
| 20260502184258 | 65 | 32 | 0.0 | 0.0 | 0.00 | 0.00 | 0.00 | ||
| 20260502182759 | 65 | 97 | 0.0 | 0.0 | 0.00 | 0.00 | 0.00 | ||
| 20260502181300 | 63 | 69 | 0.9 | 0.0 | 0.00 | 0.00 | 0.00 | ||
| 20260502164308 | 58 | 127 | 0.0 | 0.0 | 0.00 | 0.00 | 0.00 | ||
| 20260502162809 | 58 | 156 | 1.7 | 2.6 | 0.00 | 0.00 | 0.00 | ||
| 20260502161313 | 55 | 97 | 0.0 | 0.0 | 0.00 | 0.00 | 0.00 | ||
| 20260502151315 | 51 | 32 | 4.3 | 0.9 | 0.00 | 0.00 | 0.00 | ||
| 20260502122831 | 40 | 124 | 1.7 | 3.5 | 0.00 | 0.00 | 0.00 | ||
| 20260502121334 | 40 | 118 | 2.6 | 1.7 | 0.00 | 0.00 | 0.00 | ||
| 20260502115836 | 40 | 129 | 3.5 | 5.2 | 0.00 | 0.00 | 0.00 | ||
| 20260502114335 | 39 | 113 | 1.7 | 0.0 | 0.00 | 0.00 | 0.00 | ||
| 20260502111338 | 39 | 101 | 2.6 | 1.7 | 0.00 | 0.00 | 0.00 | ||
| 20260502105840 | 39 | 120 | 2.6 | 2.6 | 0.00 | 0.00 | 0.00 | ||
| 20260502104341 | 39 | 117 | 3.5 | 4.3 | 0.00 | 0.00 | 0.00 | ||
| 20260502102843 | 39 | 115 | 2.6 | 3.5 | 0.00 | 0.00 | 0.00 | ||
| 20260502101344 | 40 | 111 | 2.6 | 1.7 | 0.00 | 0.00 | 0.00 | ||
| 20260502091351 | 40 | 110 | 0.9 | 0.0 | 0.00 | 0.00 | 0.00 | ||
| 20260502071404 | 40 | 125 | 1.7 | 2.6 | 0.00 | 0.00 | 0.00 | ||
| 20260502065906 | 40 | 129 | 3.5 | 2.6 | 0.00 | 0.00 | 0.00 | ||
| 20260502064407 | 40 | 101 | 2.6 | 6.1 | 0.00 | 0.00 | 0.00 | ||
| 20260502062909 | 41 | 118 | 2.6 | 2.6 | 0.00 | 0.00 | 0.00 | ||
| 20260502061411 | 40 | 122 | 2.6 | 4.3 | 0.00 | 0.00 | 0.00 | ||
| 20260502055913 | 40 | 124 | 4.3 | 1.7 | 0.00 | 0.00 | 0.00 | ||
| 20260502054414 | 40 | 111 | 4.3 | 7.0 | 0.00 | 0.00 | 0.00 | ||
| 20260502052916 | 41 | 82 | 4.3 | 4.3 | 0.00 | 0.00 | 0.00 | ||
| 20260502051418 | 40 | 96 | 5.2 | 6.1 | 0.00 | 0.00 | 0.00 | ||
| 20260502044421 | 41 | 103 | 4.3 | 5.2 | 0.00 | 0.00 | 0.00 | ||
| 20260502042923 | 40 | 111 | 5.2 | 2.6 | 0.00 | 0.00 | 0.00 | ||
| 20260502041425 | 39 | 110 | 4.3 | 1.7 | 0.00 | 0.00 | 0.00 | ||
| 20260502035927 | 39 | 139 | 3.5 | 5.2 | 0.00 | 0.00 | 0.00 | ||
| 20260502034428 | 40 | 103 | 6.1 | 6.1 | 0.00 | 0.00 | 0.00 | ||
| 20260502032930 | 39 | 69 | 7.0 | 5.2 | 0.00 | 0.00 | 0.00 | ||
| 20260502031431 | 40 | 101 | 5.2 | 4.3 | 0.00 | 0.00 | 0.00 | ||
| 20260502025933 | 40 | 103 | 7.0 | 6.1 | 0.00 | 0.00 | 0.00 | ||
| 20260502022936 | 40 | 125 | 6.1 | 4.3 | 0.00 | 0.00 | 0.00 | ||
| 20260502021437 | 40 | 84 | 7.0 | 9.6 | 0.00 | 0.00 | 0.00 | ||
| 20260502015939 | 40 | 83 | 6.1 | 5.2 | 0.00 | 0.00 | 0.00 | ||
| 20260502014440 | 40 | 153 | 5.2 | 1.7 | 0.00 | 0.00 | 0.00 | ||
| 20260502012942 | 40 | 68 | 4.3 | 4.3 | 0.00 | 0.00 | 0.00 | ||
| 20260502011443 | 40 | 177 | 4.3 | 6.1 | 0.00 | 0.00 | 0.00 |